Location: Dackenheim
(49.5215°N, 8.1854°E)
Time: 23:27:38
(UTC+00:00)

JY1SAT - Pass Details

Date: 21 March 2026
Orbit: 466 x 476 km, 97.4° (Epoch: 13 April)

Event Time Altitude Azimuth Distance (km) Brightness Sun altitude
Exits shadow 19:04:01 11° 54° (NE) 1,586 ? -14.0°
Drops below altitude 10° 19:04:51 10° 40° (NE) 1,663 ? -14.1°
Sets 19:08:11 0° 6° (N) 2,547 ? -14.6°
